Time,TemperatureF,DewpointF,PressureIn,WindDirection,WindDirectionDegrees,WindSpeedMPH,WindSpeedGustMPH,Humidity,HourlyPrecipIn,Conditions,Clouds,dailyrainin,SolarRadiationWatts/m^2,SoftwareType,DateUTC
2013-06-07 00:02:00,55.0,48.0,-100.00,WNW,295,2.0,4.0,76,0.00,,,-99.99,41.000000,,2013-06-07 08:02:00,
2013-06-07 00:12:00,55.0,48.0,-100.00,WNW,295,2.0,4.0,76,0.00,,,-99.99,41.000000,,2013-06-07 08:12:00,
2013-06-07 00:22:00,55.0,48.0,-100.00,WNW,295,2.0,4.0,76,0.00,,,-99.99,41.000000,,2013-06-07 08:22:00,
2013-06-07 00:52:00,49.0,47.0,-100.00,NE,35,2.0,4.0,93,0.00,,,0.03,10.000000,,2013-06-07 08:52:00,
2013-06-07 01:02:00,49.0,47.0,-100.00,NE,35,2.0,4.0,93,0.00,,,0.03,10.000000,,2013-06-07 09:02:00,
2013-06-07 01:12:00,49.0,47.0,-100.00,NE,35,2.0,4.0,93,0.00,,,0.03,10.000000,,2013-06-07 09:12:00,
2013-06-07 01:22:00,49.0,47.0,-100.00,NE,35,2.0,4.0,93,0.00,,,0.03,10.000000,,2013-06-07 09:22:00,
2013-06-07 01:53:00,47.0,47.0,-100.00,ENE,75,2.0,3.0,100,0.00,,,0.03,3.000000,,2013-06-07 09:53:00,
2013-06-07 02:02:00,47.0,47.0,-100.00,ENE,75,2.0,3.0,100,0.00,,,0.03,3.000000,,2013-06-07 10:02:00,
2013-06-07 02:12:00,47.0,47.0,-100.00,ENE,75,2.0,3.0,100,0.00,,,0.03,3.000000,,2013-06-07 10:12:00,
2013-06-07 02:22:00,47.0,47.0,-100.00,ENE,75,2.0,3.0,100,0.00,,,0.03,3.000000,,2013-06-07 10:22:00,
2013-06-07 02:53:00,43.0,43.0,-100.00,ENE,70,1.0,4.0,100,0.00,,,0.03,2.000000,,2013-06-07 10:53:00,
2013-06-07 03:02:00,43.0,43.0,-100.00,ENE,70,1.0,4.0,100,0.00,,,0.03,2.000000,,2013-06-07 11:02:00,
2013-06-07 03:52:00,42.0,42.0,-100.00,East,92,2.0,3.0,100,0.00,,,0.03,3.000000,,2013-06-07 11:52:00,
2013-06-07 04:02:00,42.0,42.0,-100.00,East,92,2.0,3.0,100,0.00,,,0.03,3.000000,,2013-06-07 12:02:00,
2013-06-07 04:12:00,42.0,42.0,-100.00,East,92,2.0,3.0,100,0.00,,,0.03,3.000000,,2013-06-07 12:12:00,
2013-06-07 04:22:00,42.0,42.0,-100.00,East,92,2.0,3.0,100,0.00,,,0.03,3.000000,,2013-06-07 12:22:00,
2013-06-07 04:52:00,40.0,40.0,-100.00,East,84,1.0,2.0,100,0.00,,,0.03,9.000000,,2013-06-07 12:52:00,
2013-06-07 05:02:00,40.0,40.0,-100.00,East,84,1.0,2.0,100,0.00,,,0.03,9.000000,,2013-06-07 13:02:00,
2013-06-07 05:52:00,47.0,47.0,-100.00,East,88,2.0,4.0,100,-99.99,,,0.03,39.000000,,2013-06-07 13:52:00,
2013-06-07 06:02:00,47.0,47.0,-100.00,East,88,2.0,4.0,100,-99.99,,,0.03,39.000000,,2013-06-07 14:02:00,
2013-06-07 06:12:00,47.0,47.0,-100.00,East,88,2.0,4.0,100,-99.99,,,0.03,39.000000,,2013-06-07 14:12:00,
2013-06-07 06:22:00,47.0,47.0,-100.00,East,88,2.0,4.0,100,-99.99,,,0.03,39.000000,,2013-06-07 14:22:00,
2013-06-07 06:52:00,53.0,51.0,-100.00,SE,126,2.0,4.0,92,0.00,,,0.03,122.000000,,2013-06-07 14:52:00,
2013-06-07 07:02:00,53.0,51.0,-100.00,SE,126,2.0,4.0,92,0.00,,,0.03,122.000000,,2013-06-07 15:02:00,
2013-06-07 07:12:00,53.0,51.0,-100.00,SE,126,2.0,4.0,92,0.00,,,0.03,122.000000,,2013-06-07 15:12:00,
2013-06-07 07:22:00,53.0,51.0,-100.00,SE,126,2.0,4.0,92,0.00,,,0.03,122.000000,,2013-06-07 15:22:00,
2013-06-07 07:53:00,58.0,48.0,-100.00,NE,53,3.0,6.0,69,0.00,,,-99.99,286.000000,,2013-06-07 15:53:00,
2013-06-07 08:03:00,58.0,48.0,-100.00,NE,53,3.0,6.0,69,0.00,,,-99.99,286.000000,,2013-06-07 16:03:00,
2013-06-07 08:12:00,58.0,48.0,-100.00,NE,53,3.0,6.0,69,0.00,,,-99.99,286.000000,,2013-06-07 16:12:00,
2013-06-07 08:22:00,58.0,48.0,-100.00,NE,53,3.0,6.0,69,0.00,,,-99.99,286.000000,,2013-06-07 16:22:00,
2013-06-07 08:53:00,59.0,46.0,-100.00,East,96,5.0,8.0,62,0.00,,,0.03,338.000000,,2013-06-07 16:53:00,
2013-06-07 09:02:00,59.0,46.0,-100.00,East,96,5.0,8.0,62,0.00,,,0.03,338.000000,,2013-06-07 17:02:00,
2013-06-07 09:12:00,59.0,46.0,-100.00,East,96,5.0,8.0,62,0.00,,,0.03,338.000000,,2013-06-07 17:12:00,
2013-06-07 09:22:00,59.0,46.0,-100.00,East,96,5.0,8.0,62,0.00,,,0.03,338.000000,,2013-06-07 17:22:00,
2013-06-07 09:52:00,62.0,46.0,-100.00,East,84,3.0,8.0,56,0.00,,,0.03,432.000000,,2013-06-07 17:52:00,
2013-06-07 10:04:00,62.0,46.0,-100.00,East,84,3.0,8.0,56,0.00,,,0.03,432.000000,,2013-06-07 18:04:00,
2013-06-07 10:23:00,62.0,46.0,-100.00,East,84,3.0,8.0,56,0.00,,,0.03,432.000000,,2013-06-07 18:23:00,
2013-06-07 10:58:00,65.0,46.0,-100.00,ESE,111,5.0,7.0,50,0.00,,,0.03,535.000000,,2013-06-07 18:58:00,
2013-06-07 11:05:00,65.0,46.0,-100.00,ESE,111,5.0,7.0,50,0.00,,,0.03,535.000000,,2013-06-07 19:05:00,
2013-06-07 11:13:00,65.0,46.0,-100.00,ESE,111,5.0,7.0,50,0.00,,,0.03,535.000000,,2013-06-07 19:13:00,
2013-06-07 11:57:00,66.0,43.0,-100.00,NNE,29,5.0,8.0,43,0.00,,,0.03,618.000000,,2013-06-07 19:57:00,
2013-06-07 12:04:00,66.0,43.0,-100.00,NNE,29,5.0,8.0,43,0.00,,,0.03,618.000000,,2013-06-07 20:04:00,
2013-06-07 12:13:00,66.0,43.0,-100.00,NNE,29,5.0,8.0,43,0.00,,,0.03,618.000000,,2013-06-07 20:13:00,
2013-06-07 12:23:00,66.0,43.0,-100.00,NNE,29,5.0,8.0,43,0.00,,,0.03,618.000000,,2013-06-07 20:23:00,
2013-06-07 12:57:00,66.0,40.0,-100.00,NW,320,6.0,13.0,38,0.00,,,0.03,696.000000,,2013-06-07 20:57:00,
2013-06-07 13:04:00,66.0,40.0,-100.00,NW,320,6.0,13.0,38,0.00,,,0.03,696.000000,,2013-06-07 21:04:00,
2013-06-07 13:14:00,66.0,40.0,-100.00,NW,320,6.0,13.0,38,0.00,,,0.03,696.000000,,2013-06-07 21:14:00,
2013-06-07 14:00:00,68.0,41.0,-100.00,North,358,6.0,11.0,38,0.00,,,0.03,757.000000,,2013-06-07 22:00:00,
2013-06-07 14:07:00,68.0,41.0,-100.00,North,358,6.0,11.0,38,0.00,,,0.03,757.000000,,2013-06-07 22:07:00,
2013-06-07 14:24:00,68.0,41.0,-100.00,North,358,6.0,11.0,38,0.00,,,0.03,757.000000,,2013-06-07 22:24:00,
2013-06-07 14:59:00,70.0,40.0,-100.00,WNW,295,4.0,13.0,34,0.00,,,0.03,752.000000,,2013-06-07 22:59:00,
2013-06-07 15:05:00,70.0,40.0,-100.00,WNW,295,4.0,13.0,34,0.00,,,0.03,752.000000,,2013-06-07 23:05:00,
2013-06-07 15:15:00,70.0,40.0,-100.00,WNW,295,4.0,13.0,34,0.00,,,0.03,752.000000,,2013-06-07 23:15:00,
2013-06-07 15:22:00,70.0,40.0,-100.00,WNW,295,4.0,13.0,34,0.00,,,0.03,752.000000,,2013-06-07 23:22:00,
2013-06-07 15:25:00,71.0,40.0,-100.00,ENE,74,7.0,13.0,33,0.00,,,0.03,685.000000,,2013-06-07 23:25:00,
2013-06-07 16:07:00,71.0,40.0,-100.00,ENE,74,7.0,13.0,33,0.00,,,0.03,685.000000,,2013-06-08 00:07:00,
2013-06-07 16:14:00,71.0,40.0,-100.00,ENE,74,7.0,13.0,33,0.00,,,0.03,685.000000,,2013-06-08 00:14:00,
2013-06-07 16:58:00,69.0,37.0,-100.00,NE,39,6.0,13.0,31,0.00,,,0.02,425.000000,,2013-06-08 00:58:00,
2013-06-07 17:05:00,69.0,37.0,-100.00,NE,39,6.0,13.0,31,0.00,,,0.02,425.000000,,2013-06-08 01:05:00,
2013-06-07 17:15:00,69.0,37.0,-100.00,NE,39,6.0,13.0,31,0.00,,,0.02,425.000000,,2013-06-08 01:15:00,
2013-06-07 17:24:00,69.0,37.0,-100.00,NE,39,6.0,13.0,31,0.00,,,0.02,425.000000,,2013-06-08 01:24:00,
2013-06-07 17:59:00,69.0,39.0,-100.00,NNE,29,4.0,9.0,34,0.00,,,0.00,241.000000,,2013-06-08 01:59:00,
2013-06-07 18:07:00,69.0,39.0,-100.00,NNE,29,4.0,9.0,34,0.00,,,0.00,241.000000,,2013-06-08 02:07:00,
2013-06-07 18:13:00,69.0,39.0,-100.00,NNE,29,4.0,9.0,34,0.00,,,0.00,241.000000,,2013-06-08 02:13:00,
2013-06-07 18:24:00,69.0,39.0,-100.00,NNE,29,4.0,9.0,34,0.00,,,0.00,241.000000,,2013-06-08 02:24:00,
2013-06-07 18:25:00,69.0,37.0,-100.00,WNW,297,7.0,9.0,31,0.00,,,0.00,419.000000,,2013-06-08 02:25:00,
2013-06-07 18:59:00,69.0,37.0,-100.00,WNW,297,7.0,9.0,31,0.00,,,0.00,419.000000,,2013-06-08 02:59:00,
2013-06-07 19:07:00,69.0,37.0,-100.00,WNW,297,7.0,9.0,31,0.00,,,0.00,419.000000,,2013-06-08 03:07:00,
2013-06-07 19:15:00,69.0,37.0,-100.00,WNW,297,7.0,9.0,31,0.00,,,0.00,419.000000,,2013-06-08 03:15:00,
2013-06-07 19:59:00,70.0,43.0,-100.00,NW,317,9.0,13.0,37,0.00,,,0.00,311.000000,,2013-06-08 03:59:00,
2013-06-07 20:03:00,70.0,43.0,-100.00,NW,317,9.0,13.0,37,0.00,,,0.00,311.000000,,2013-06-08 04:03:00,
2013-06-07 20:12:00,70.0,43.0,-100.00,NW,317,9.0,13.0,37,0.00,,,0.00,311.000000,,2013-06-08 04:12:00,
2013-06-07 20:22:00,70.0,43.0,-100.00,NW,317,9.0,13.0,37,0.00,,,0.00,311.000000,,2013-06-08 04:22:00,
2013-06-07 20:53:00,67.0,41.0,-100.00,NW,320,5.0,12.0,38,0.00,,,0.00,245.000000,,2013-06-08 04:53:00,
2013-06-07 21:02:00,67.0,41.0,-100.00,NW,320,5.0,12.0,38,0.00,,,0.00,245.000000,,2013-06-08 05:02:00,
2013-06-07 21:12:00,67.0,41.0,-100.00,NW,320,5.0,12.0,38,0.00,,,0.00,245.000000,,2013-06-08 05:12:00,
2013-06-07 21:22:00,67.0,41.0,-100.00,NW,320,5.0,12.0,38,0.00,,,0.00,245.000000,,2013-06-08 05:22:00,
2013-06-07 21:52:00,69.0,41.0,-100.00,North,356,4.0,8.0,36,0.00,,,0.00,209.000000,,2013-06-08 05:52:00,
2013-06-07 22:02:00,69.0,41.0,-100.00,North,356,4.0,8.0,36,0.00,,,0.00,209.000000,,2013-06-08 06:02:00,
2013-06-07 22:12:00,69.0,41.0,-100.00,North,356,4.0,8.0,36,0.00,,,0.00,209.000000,,2013-06-08 06:12:00,
2013-06-07 22:22:00,69.0,41.0,-100.00,North,356,4.0,8.0,36,0.00,,,0.00,209.000000,,2013-06-08 06:22:00,
2013-06-07 22:52:00,63.0,40.0,-100.00,NE,35,3.0,7.0,42,0.00,,,0.00,54.000000,,2013-06-08 06:52:00,
2013-06-07 23:02:00,63.0,40.0,-100.00,NE,35,3.0,7.0,42,0.00,,,0.00,54.000000,,2013-06-08 07:02:00,
2013-06-07 23:12:00,63.0,40.0,-100.00,NE,35,3.0,7.0,42,0.00,,,0.00,54.000000,,2013-06-08 07:12:00,
2013-06-07 23:22:00,63.0,40.0,-100.00,NE,35,3.0,7.0,42,0.00,,,0.00,54.000000,,2013-06-08 07:22:00,
2013-06-07 23:52:00,57.0,44.0,-100.00,NW,313,3.0,5.0,62,0.00,,,0.00,27.000000,,2013-06-08 07:52:00,